Location: LDNL
(36.4545°S, 141.6685°E)
Time: 15:58:08
(UTC+10:00)

Courier 1B Rocket - Pass Details

Date: 17 August 2022
Orbit: 920 x 1202 km, 28.2° (Epoch: 25 September)

Event Time Altitude Azimuth Distance (km) Brightness Sun altitude
Exits shadow 05:38:16 25° 298° (WNW) 2,199 6.3 -19.8°
Maximum altitude 05:42:20 44° 352° (N) 1,599 6.0 -19.0°
Drops below altitude 10° 05:49:30 10° 61° (ENE) 3,062 8.6 -17.6°
Sets 05:52:23 0° 67° (ENE) 3,988 9.6 -17.0°
